Latest Weather Observations for Maroochydore

IDQ60901

Issued at 9:51 am EST Sunday 29 March 2015 (issued every 10 minutes, with the page automatically refreshed every 10 minutes)

About weather observations | Map of Brisbane area stations | Latest observations for Brisbane area | Other Formats
Station Details ID: 040861 Name: SUNSHINE COAST AIRPORT Lat: -26.60 Lon: 153.09 Height: 3.3 m
Data from the previous 72 hours. | See also: Recent months at Maroochydore
Date/Time
EST
Tmp

°C
App
Tmp
°C
Dew
Point
°C
Rel
Hum
%
Delta-T

°C
Wind Press
QNH
hPa
Press
MSL
hPa
Rain
since
9 am
mm
Dir
 
Spd
km/h
Gust
km/h
Spd
kts
Gust
kts
29/09:30am 26.8 25.5 17.3 56 5.9 E 20 28 11 15 1023.2 - 0.0
29/09:00am 26.2 25.1 17.8 60 5.3 E 20 28 11 15 1023.1 1023.1 0.2
29/08:00am 26.8 26.0 18.1 59 5.5 E 19 26 10 14 1022.6 - 0.2
29/07:30am 25.7 25.2 17.9 62 4.9 ESE 17 22 9 12 1022.2 - 0.2
29/07:00am 24.9 24.1 17.1 62 4.8 E 17 24 9 13 1021.7 - 0.2
29/06:30am 24.7 23.8 16.9 62 4.8 E 17 22 9 12 1021.2 - 0.2
29/05:30am 24.1 23.3 17.1 65 4.3 E 17 24 9 13 1020.6 - 0.2
29/05:00am 24.1 22.9 17.1 65 4.3 E 19 24 10 13 1020.3 - 0.2
29/04:30am 24.4 23.5 16.9 63 4.6 E 17 24 9 13 1019.8 - 0.2
29/04:00am 24.4 23.7 17.4 65 4.4 E 17 20 9 11 1019.6 - 0.2
29/03:30am 24.3 23.2 17.3 65 4.3 E 19 28 10 15 1019.5 - 0.2
29/03:00am 24.3 22.9 17.1 64 4.4 E 20 30 11 16 1019.5 1019.5 0.2
29/02:30am 24.2 22.9 16.7 63 4.6 E 19 24 10 13 1019.8 - 0.2
29/02:00am 24.3 23.5 17.1 64 4.5 ESE 17 22 9 12 1020.2 - 0.2
29/01:30am 24.4 23.2 17.1 63 4.5 E 19 24 10 13 1020.1 - 0.2
29/01:00am 24.4 23.2 17.1 63 4.5 E 19 24 10 13 1020.2 - 0.2
29/12:30am 24.5 23.4 17.2 63 4.5 E 19 26 10 14 1020.5 - 0.2
 
Date/Time
EST
Tmp

°C
App
Tmp
°C
Dew
Point
°C
Rel
Hum
%
Delta-T

°C
Wind Press
QNH
hPa
Press
MSL
hPa
Rain
since
9 am
mm
Dir
 
Spd
km/h
Gust
km/h
Spd
kts
Gust
kts
28/11:30pm 24.7 24.0 17.4 64 4.5 E 17 22 9 12 1021.0 - 0.2
28/11:00pm 24.7 23.4 16.7 61 4.9 E 19 26 10 14 1021.1 - 0.2
28/10:30pm 24.6 23.4 17.1 63 4.6 E 19 26 10 14 1021.1 - 0.2
28/10:00pm 24.7 23.8 16.9 62 4.8 ESE 17 24 9 13 1021.1 - 0.2
28/09:30pm 24.7 23.9 17.2 63 4.7 E 17 24 9 13 1021.1 - 0.2
28/09:00pm 24.7 24.2 17.7 65 4.4 E 17 26 9 14 1020.9 1020.9 0.2
28/08:30pm 24.6 24.3 18.3 68 4.0 ESE 17 22 9 12 1020.8 - 0.2
28/08:00pm 24.9 24.5 19.3 71 3.6 E 20 26 11 14 1020.5 - 0.2
28/07:30pm 25.0 24.5 18.7 68 4.0 ESE 19 28 10 15 1020.3 - 0.2
28/07:00pm 24.9 24.9 19.0 69 3.8 ESE 17 24 9 13 1019.8 - 0.2
28/06:30pm 25.2 24.8 18.9 68 4.0 ESE 19 28 10 15 1019.6 - 0.2
28/06:00pm 25.2 25.0 19.3 70 3.8 ESE 19 24 10 13 1019.4 1019.4 0.2
28/05:30pm 25.2 24.7 19.1 69 3.9 ESE 20 28 11 15 1019.0 - 0.2
28/05:00pm 25.7 25.4 19.1 67 4.2 ESE 19 26 10 14 1018.8 - 0.2
28/04:30pm 26.4 25.9 19.0 63 4.7 ESE 20 26 11 14 1018.5 - 0.2
28/04:00pm 27.2 26.7 19.0 61 5.3 ESE 20 28 11 15 1018.5 - 0.2
28/03:30pm 26.4 25.9 19.0 63 4.7 ESE 20 28 11 15 1018.5 - 0.2
28/03:00pm 26.6 26.1 19.2 64 4.8 ESE 20 30 11 16 1018.6 1018.6 0.2
28/02:30pm 27.3 27.0 20.4 66 4.5 ESE 22 30 12 16 1018.7 - 0.2
28/02:00pm 26.4 25.7 20.3 69 4.0 ESE 24 32 13 17 1018.9 - 0.2
28/01:30pm 25.9 25.2 20.2 71 3.7 ESE 24 30 13 16 1019.1 - 0.2
28/01:00pm 26.1 26.0 20.7 72 3.5 ESE 22 32 12 17 1019.1 - 0.2
28/12:30pm 26.9 26.7 21.2 71 3.8 ESE 24 32 13 17 1019.3 - 0.2
28/12:00pm 27.8 28.8 22.1 71 3.8 ESE 20 30 11 16 1019.6 1019.6 0.2
28/11:30am 25.4 26.6 21.5 79 2.6 ESE 17 22 9 12 1020.0 - 0.2
28/11:00am 26.6 26.3 20.4 69 4.1 ESE 22 32 12 17 1020.3 - 0.0
28/10:30am 28.8 29.7 21.6 65 4.8 E 19 26 10 14 1020.6 - 0.0
28/10:00am 28.2 28.1 20.0 61 5.4 E 20 26 11 14 1020.5 - 0.0
28/09:30am 28.6 29.2 21.1 64 5.0 ESE 19 26 10 14 1020.6 - 0.0
28/09:00am 28.3 29.4 22.3 70 4.0 ESE 20 28 11 15 1020.5 1020.5 0.0
28/08:30am 27.4 27.4 21.0 68 4.2 ESE 22 28 12 15 1020.2 - 0.0
28/08:00am 26.9 27.1 20.5 68 4.2 ESE 20 26 11 14 1019.9 - 0.0
28/07:30am 25.8 26.2 20.6 73 3.4 SE 19 24 10 13 1019.5 - 0.0
28/07:00am 26.2 27.5 21.6 76 3.1 SE 17 24 9 13 1019.0 - 0.0
28/06:30am 25.5 26.8 21.6 79 2.6 SE 17 22 9 12 1018.7 - 0.0
28/06:00am 24.9 25.6 21.2 80 2.4 ESE 19 24 10 13 1018.4 1018.4 0.0
28/05:30am 22.9 26.1 21.2 90 1.1 SW 6 9 3 5 1018.3 - 0.0
28/05:00am 23.1 26.1 21.2 89 1.2 SW 7 9 4 5 1018.0 - 0.0
28/04:30am 23.0 25.5 21.1 89 1.2 SSW 9 11 5 6 1017.6 - 0.0
28/04:16am 23.3 26.0 21.4 89 1.3 S 9 13 5 7 1017.4 - 0.0
28/04:00am 23.3 26.4 21.4 89 1.3 SSW 7 11 4 6 1017.3 - 0.0
28/03:30am 23.3 26.0 21.4 89 1.3 SSW 9 11 5 6 1017.2 - 0.0
28/03:00am 23.2 25.6 21.5 90 1.1 SW 11 13 6 7 1017.2 1017.2 0.0
28/02:46am 23.2 26.5 21.5 90 1.1 SW 6 7 3 4 1017.2 - 0.0
28/02:43am 23.2 26.5 21.5 90 1.1 SW 6 9 3 5 1017.2 - 0.0
28/02:30am 23.3 26.1 21.6 90 1.1 SW 9 11 5 6 1017.3 - 0.0
28/02:12am 23.4 26.2 21.5 89 1.3 SW 9 11 5 6 1017.4 - 0.0
28/02:00am 23.5 26.3 21.6 89 1.3 SW 9 11 5 6 1017.5 - 0.0
28/01:39am 23.7 26.9 21.6 88 1.4 SW 7 9 4 5 1017.6 - 0.0
28/01:30am 23.8 26.7 21.7 88 1.4 SW 9 11 5 6 1017.6 - 0.0
28/01:04am 24.1 27.0 21.8 87 1.5 SW 9 13 5 7 1017.7 - 0.0
28/01:00am 24.1 26.9 21.6 86 1.7 SW 9 11 5 6 1017.7 - 0.0
28/12:30am 25.4 27.4 21.5 79 2.6 SE 13 17 7 9 1017.7 - 0.0
28/12:00am 25.4 27.7 21.3 78 2.7 SE 11 13 6 7 1018.0 1018.0 0.0
 
Date/Time
EST
Tmp

°C
App
Tmp
°C
Dew
Point
°C
Rel
Hum
%
Delta-T

°C
Wind Press
QNH
hPa
Press
MSL
hPa
Rain
since
9 am
mm
Dir
 
Spd
km/h
Gust
km/h
Spd
kts
Gust
kts
27/11:30pm 25.7 27.6 21.4 77 2.8 ESE 13 17 7 9 1018.3 - 0.0
27/11:00pm 25.5 27.9 21.6 79 2.6 ESE 11 15 6 8 1018.6 - 0.0
27/10:30pm 25.7 27.7 21.6 78 2.7 ESE 13 19 7 10 1018.6 - 0.0
27/10:00pm 25.6 26.9 21.7 79 2.6 ESE 17 22 9 12 1018.6 - 0.0
27/09:30pm 25.6 26.9 21.7 79 2.6 ESE 17 24 9 13 1018.7 - 0.0
27/09:00pm 25.8 27.5 22.3 81 2.3 ESE 17 24 9 13 1018.7 1018.7 0.0
27/08:59pm 25.8 27.5 22.3 81 2.3 ESE 17 24 9 13 1018.7 - 0.0
27/08:45pm 25.9 27.2 22.4 81 2.4 ESE 19 28 10 15 1018.8 - 0.0
27/08:44pm 25.9 27.2 22.4 81 2.4 ESE 19 28 10 15 1018.8 - 0.0
27/08:30pm 25.9 27.1 22.2 80 2.5 ESE 19 26 10 14 1018.6 - 0.0
27/08:00pm 26.1 28.9 23.0 83 2.1 ESE 13 17 7 9 1018.3 - 0.0
27/07:53pm 26.1 28.3 23.2 84 2.0 ESE 17 24 9 13 1018.4 - 0.0
27/07:30pm 26.2 28.2 22.9 82 2.2 ESE 17 24 9 13 1018.1 - 0.0
27/07:00pm 26.2 27.3 22.3 79 2.6 ESE 20 26 11 14 1017.9 - 0.0
27/06:30pm 26.1 27.2 22.4 80 2.5 SE 20 28 11 15 1017.5 - 0.0
27/06:07pm 26.2 27.1 22.7 81 2.4 ESE 22 30 12 16 1017.1 - 0.0
27/06:00pm 26.2 27.1 22.7 81 2.4 SE 22 30 12 16 1017.1 1017.1 0.0
27/05:47pm 26.3 26.7 22.4 79 2.6 SE 24 33 13 18 1016.8 - 0.0
27/05:44pm 26.2 26.5 22.3 79 2.6 SE 24 33 13 18 1016.8 - 0.0
27/05:30pm 26.5 27.9 22.8 80 2.5 SE 20 35 11 19 1016.7 - 0.0
27/05:29pm 26.5 28.1 22.8 80 2.5 SE 19 35 10 19 1016.7 - 0.0
27/05:00pm 27.3 30.0 22.9 77 3.0 E 13 17 7 9 1016.5 - 0.0
27/04:30pm 28.4 30.9 23.1 73 3.6 ENE 15 17 8 9 1016.0 - 0.0
27/04:00pm 28.4 31.5 23.5 75 3.4 ENE 13 17 7 9 1015.7 - 0.0
27/03:30pm 28.5 30.8 23.4 74 3.5 NE 17 20 9 11 1015.6 - 0.0
27/03:00pm 29.7 32.3 24.6 74 3.6 NE 19 24 10 13 1015.4 1015.4 0.0
27/02:30pm 27.8 29.7 23.4 77 3.0 NNE 19 20 10 11 1015.5 - 0.0
27/02:00pm 28.0 29.3 22.7 73 3.6 NE 20 24 11 13 1015.7 - 0.0
27/01:30pm 29.5 31.0 23.7 71 4.0 NNE 22 28 12 15 1016.0 - 0.0
27/01:00pm 29.4 30.8 22.6 67 4.6 NNE 19 24 10 13 1016.3 - 0.0
27/12:30pm 30.7 33.6 20.6 54 6.7 NW 6 11 3 6 1016.7 - 0.0
27/12:00pm 30.3 32.8 21.7 60 5.8 WNW 11 15 6 8 1017.2 1017.2 0.0
27/11:30am 30.0 32.0 22.2 63 5.3 NNW 15 20 8 11 1017.7 - 0.0
27/11:00am 29.8 32.7 22.5 65 5.0 NW 11 20 6 11 1018.1 - 0.0
27/10:30am 29.1 31.0 22.1 66 4.7 NNW 15 24 8 13 1018.6 - 0.0
27/10:00am 28.9 31.3 22.2 67 4.5 NW 13 22 7 12 1018.8 - 0.0
27/09:30am 28.5 30.3 22.5 70 4.1 NW 17 24 9 13 1018.8 - 0.0
27/09:00am 27.5 28.6 22.0 72 3.7 NW 19 26 10 14 1018.9 1018.9 0.0
27/08:30am 26.9 28.9 22.3 76 3.1 NW 15 20 8 11 1018.9 - 0.0
27/08:00am 26.3 28.8 22.4 79 2.6 NW 13 22 7 12 1018.8 - 0.0
27/07:30am 25.1 26.8 21.6 81 2.3 NW 15 22 8 12 1018.6 - 0.0
27/07:00am 24.3 27.5 22.4 89 1.3 NNW 9 13 5 7 1018.3 - 0.0
27/06:30am 23.0 25.9 21.8 93 0.8 N 9 11 5 6 1017.8 - 0.0
27/06:00am 22.4 25.0 21.2 93 0.8 NNW 9 11 5 6 1017.6 1017.6 0.0
27/05:30am 22.4 25.0 21.2 93 0.8 NW 9 11 5 6 1017.3 - 0.0
27/05:00am 22.6 25.3 21.4 93 0.8 NNW 9 11 5 6 1017.1 - 0.0
27/04:30am 22.6 25.3 21.4 93 0.8 WNW 9 11 5 6 1017.0 - 0.0
27/04:00am 22.7 25.5 21.5 93 0.8 NNW 9 13 5 7 1016.6 - 0.0
27/03:30am 22.9 25.4 21.7 93 0.8 NW 11 13 6 7 1016.6 - 0.0
27/03:00am 23.0 25.5 21.8 93 0.8 NW 11 13 6 7 1016.6 1016.6 0.0
27/02:30am 23.1 26.0 21.7 92 0.9 NNW 9 13 5 7 1016.8 - 0.0
27/02:00am 23.4 25.8 22.2 93 0.8 NNW 13 15 7 8 1017.0 - 0.0
27/01:30am 23.2 26.1 21.8 92 0.9 N 9 13 5 7 1017.1 - 0.0
27/01:00am 23.5 26.2 22.1 92 0.9 N 11 13 6 7 1017.5 - 0.0
27/12:30am 23.9 26.7 22.3 91 1.1 NNW 11 13 6 7 1017.6 - 0.0
27/12:00am 23.5 26.5 21.9 91 1.1 N 9 13 5 7 1017.7 1017.7 0.0
 
Date/Time
EST
Tmp

°C
App
Tmp
°C
Dew
Point
°C
Rel
Hum
%
Delta-T

°C
Wind Press
QNH
hPa
Press
MSL
hPa
Rain
since
9 am
mm
Dir
 
Spd
km/h
Gust
km/h
Spd
kts
Gust
kts
26/11:30pm 23.9 26.9 22.0 89 1.3 NW 9 13 5 7 1018.0 - 0.0
26/11:00pm 24.8 27.2 22.3 86 1.7 NNW 13 20 7 11 1018.0 - 0.0
26/10:30pm 24.4 27.3 22.5 89 1.3 NNW 11 15 6 8 1018.0 - 0.0
26/10:00pm 23.8 26.7 22.4 92 0.9 N 11 15 6 8 1018.3 - 0.0
26/09:48pm 23.5 26.1 21.9 91 1.1 N 11 13 6 7 1018.3 - 0.0
26/09:30pm 23.6 26.9 21.9 90 1.1 NNW 7 9 4 5 1018.5 - 0.0
26/09:00pm 24.1 27.6 21.8 87 1.5 WNW 6 7 3 4 1018.3 1018.3 0.0
26/08:30pm 24.7 27.6 22.4 87 1.5 W 11 13 6 7 1018.1 - 0.0
26/08:29pm 24.7 27.6 22.4 87 1.5 W 11 13 6 7 1018.1 - 0.0
26/08:00pm 25.0 27.8 22.3 85 1.8 NNW 11 19 6 10 1017.7 - 0.0
26/07:30pm 25.5 27.7 22.6 84 2.0 N 15 20 8 11 1017.3 - 0.0
26/07:00pm 25.7 27.3 22.8 84 2.0 N 19 28 10 15 1017.0 - 0.0
26/06:30pm 25.9 27.5 22.8 83 2.1 N 19 26 10 14 1016.8 - 0.0
26/06:00pm 25.8 27.0 22.5 82 2.2 N 20 26 11 14 1016.5 1016.5 0.0
26/05:30pm 26.1 27.2 22.4 80 2.5 N 20 32 11 17 1016.2 - 0.0
26/05:00pm 26.9 26.6 22.5 77 3.0 NNE 28 35 15 19 1015.2 - 0.0
26/04:30pm 27.6 27.3 22.5 74 3.4 NNE 28 35 15 19 1015.1 - 0.0
26/04:00pm 28.4 27.6 22.4 70 4.1 NNE 30 37 16 20 1015.1 - 0.0
26/03:30pm 28.1 27.7 22.3 70 3.9 NNE 28 35 15 19 1015.4 - 0.0
26/03:00pm 27.4 27.1 21.9 72 3.7 NNE 26 33 14 18 1015.4 1015.4 0.0
26/02:30pm 29.5 29.1 21.7 63 5.2 NNE 26 33 14 18 1015.6 - 0.0
26/02:00pm 29.5 28.7 21.7 63 5.2 NNE 28 33 15 18 1015.9 - 0.0
26/01:30pm 30.1 29.9 22.0 62 5.5 NNE 26 32 14 17 1016.1 - 0.0
26/01:00pm 30.5 29.8 21.8 59 5.9 NNE 28 33 15 18 1016.5 - 0.0
26/12:30pm 29.4 28.9 21.4 62 5.4 NNE 26 32 14 17 1017.0 - 0.0
26/12:00pm 29.8 30.8 22.8 66 4.8 NNE 22 30 12 16 1017.5 1017.5 0.0
26/11:30am 28.8 29.1 21.6 65 4.8 NNE 22 28 12 15 1018.1 - 0.0
26/11:00am 28.5 28.7 21.3 65 4.8 NNE 22 28 12 15 1018.3 - 0.0
26/10:30am 29.8 30.9 23.0 67 4.7 NNE 22 28 12 15 1018.5 - 0.0
26/10:00am 29.3 29.9 22.8 68 4.4 NNE 24 30 13 16 1018.7 - 0.0

Latest Capital City Observations: Canberra | Sydney | Melbourne | Brisbane | Adelaide | Perth | Hobart | Darwin

Other Formats:

Comma delimited format used in spreadsheet applications
http://www.bom.gov.au/fwo/IDQ60901/IDQ60901.94569.axf

JavaScript Object Notation format (JSON) in row-major order
http://www.bom.gov.au/fwo/IDQ60901/IDQ60901.94569.json